www.pogodaiklimat.ru

Погода и климат >> Архив погоды >> Россия >> Красноярский край >> Назарово


ПОГОДА в Назарово

  • Прогноз погоды в Назарово
  • Монитор погоды в Назарово

АРХИВ ПОГОДЫ в Назарово

Время (UTC), дата Ветер
(напр.,м/с)
 
Видим.   Явления Облачность Т
(С)
Тd
(С)
f
(%)
Тe
(С)
Тes
(С)
Комфортность P
(гПа)
Po
(гПа)
Тmin
(С)
Tmax
(С)
R
(мм)
R24
(мм)
S
(см)
09 11.06 З 4
{11}
10 км 8/6 600 м
[Cb cap Ac As]
+20.8 +11.0 53 +23 +25 комфорт 1010.9 981.4
12 11.06 З 3
{10}
10 км 8/8 600 м
[Cb cap]
+21.4 +11.6 54 +23 +24 комфорт 1011.2 981.8 +22.5 0.0
15 11.06 ЮЗ 2 10 км 8/8 1000 м
[Sc]
+17.4 +11.3 67 +18 +18 1012.7 982.8
18 11.06 штиль 0 н/о 8/8 1000 м
[Sc]
+13.2 +10.7 85 +13 +13 1013.4 983.1
21 11.06 В 1 10 км 6/6 1000 м
[Sc]
+12.0 +10.1 88 +12 +12 1013.4 982.9
00 12.06 В 1 10 км 8/6 1000 м
[Sc Cs]
+15.2 +12.1 82 +16 +17 1012.0 982.0 +11.8
03 12.06 ЮЗ 4 10 км 1/1 600 м
[Cu med, cong]
+21.8 +11.9 53 +24 +30 комфорт 1010.5 981.1
06 12.06 З 5-10
{11}
10 км 8/8 600 м
[Cu med, cong]
+25.0 +9.0 36 +26 +27 жарко 1008.1 979.1
09 12.06 ЮЗ 4
{10}
10 км 8/8 600 м
[Cu med, cong]
+26.5 +8.8 33 +27 +28 жарко 1006.3 977.5
12 12.06 З 3 10 км 3/1 600 м
[Cu med, cong Ci fib]
+26.5 +8.5 32 +27 +28 жарко 1005.1 976.4 +27.2
15 12.06 З 1 10 км 1/0
[Ci fib]
+20.9 +10.7 52 +24 +24 комфорт 1005.9 976.5
18 12.06 В 1 н/о 6/0
[Ci]
+15.2 +11.7 80 +16 +16 1006.1 976.3
21 12.06 В 1 10 км 8/8 1000 м
[Sc]
+13.6 +11.0 84 +14 +14 1005.4 975.4
00 13.06 В 1 10 км 8/4 600 м
[Cu Sc Ac lent Ci fib]
+15.0 +11.3 79 +16 +17 1005.3 975.4 +12.8
03 13.06 Ю 4 10 км 8/0
[Cs]
+24.7 +11.3 43 +26 +32 жарко 1002.7 973.9
06 13.06 ЮЗ 4-10
{11}
10 км 8/8 600 м
[Cu med, cong]
+27.7 +8.9 31 +45 +47 опасность
перегрева
1001.8 973.3
09 13.06 Ю 5
{10}
10 км 9/9 600 м
[Cu med, cong]
+27.9 +8.6 30 +28 +28 жарко 1000.6 972.1
12 13.06 ЮЗ 3 10 км 6/6 600 м
[Cu med, cong]
+26.8 +7.0 28 +26 +27 жарко 999.4 970.8 +28.9
15 13.06 Ю 1 10 км 9/8 1000 м
[Sc diur, vesp Ci fib]
+21.7 +9.9 47 +23 +23 комфорт 1000.3 971.2
18 13.06 З 2 н/о 8/6 1000 м
[Sc diur, vesp Ci fib]
+19.8 +11.1 57 +22 +22 комфорт 1000.9 971.6
21 13.06 ЮВ 1 10 км 6/3 1000 м
[Sc diur, vesp Ci fib]
+14.9 +11.6 81 +15 +15 1000.0 970.3
00 14.06 СВ 1 10 км 10/10 600 м
[Cb cap]
+16.6 +12.6 77 +17 +17 999.9 970.4 +14.9
03 14.06 З 4 10 км {ливн. осадки} 10/10 600 м
[Cb cap]
+22.6 +12.7 54 +25 +25 комфорт 999.7 970.7
06 14.06 З 4
{11}
10 км {ливн. осадки} 8/6 600 м
[Cb cap Ac cuf]
+22.8 +13.7 56 +26 +29 жарко 1000.7 971.8
09 14.06 СЗ 3 10 км 9/6 600 м
[Cb cap Ac cuf Ci fib]
+21.8 +12.3 55 +24 +26 комфорт 1001.9 972.8
12 14.06 СЗ 1 10 км 9/6 600 м
[Cb cap Ac cuf]
+18.8 +10.2 57 +21 +21 комфорт 1003.6 974.1 +23.4 0.0
15 14.06 штиль 0 10 км 4/0
[Ac lent Ci fib]
+15.8 +10.3 70 +16 +16 1004.6 974.8
18 14.06 штиль 0 н/о 9/0
[Ac lent Ci fib]
+12.4 +9.9 85 +12 +12 1005.0 974.9
21 14.06 В 1 10 км 10/0
[Ac As]
+11.2 +9.8 91 +11 +11 1004.5 974.3
00 15.06 В 1 10 км {дождь} 10/0 2000 м
[Ac As]
+13.6 +10.5 82 +14 +15 1004.1 974.1 +10.7 0.0
03 15.06 В 1 10 км {дождь} 10/0
[As op]
+16.8 +13.1 79 +18 +20 1003.5 973.8
06 15.06 З 2 10 км {дождь} 9/4 600 м
[Cb cap Ac trans Ci fib]
+18.8 +15.2 80 +20 +26 1003.5 974.1
09 15.06 СЗ 2 10 км {ливн. осадки} 10/10 600 м
[Cb cap]
+16.2 +14.1 87 +16 +16 1005.5 975.8
12 15.06 С 1 10 км {ливн. осадки} 9/4 600 м
[Cb cap Ac trans Ci fib]
+17.4 +12.2 72 +18 +19 1005.9 976.3 +19.6 2
15 15.06 штиль 0 10 км 10/10 1000 м
[Sc diur, vesp]
+15.6 +11.3 76 +15 +15 1007.3 977.4
18 15.06 штиль 0 н/о 9/3 600 м
[Cb cap Ac trans Ci fib]
+12.8 +11.1 89 +12 +12 1006.4 976.3
21 15.06 штиль 0 10 км 10/10 1000 м
[Sc]
+14.2 +11.0 81 +14 +14 1004.7 974.8
00 16.06 В 1 10 км {ливн. осадки} 9/5 600 м
[Cb cap Ac trans Ci fib]
+14.8 +12.6 87 +15 +16 1003.7 973.8 +12.6 0.0
03 16.06 ЮВ 2 10 км 10/10 600 м
[Cb cap]
+19.2 +14.9 76 +21 +21 комфорт 1002.5 973.2
06 16.06 Ю 2 10 км 9/8 600 м
[Cb cap Ci fib]
+22.8 +15.7 64 +27 +30 душно 1001.1 972.2
09 16.06 З 1 10 км 9/6 600 м
[Cu med, cong Ci fib]
+26.2 +14.4 48 +29 +33 жарко 999.6 971.0
12 16.06 С 1 10 км 6/3 600 м
[Cu med, cong Ci fib]
+26.1 +12.9 44 +28 +30 жарко 999.8 971.2 +26.5
15 16.06 З 3
{16}
10 км слаб. ливневой дождь 9/6 600 м
[Cb cap Ci fib]
+16.8 +13.6 81 +17 +17 1002.4 972.9
18 16.06 Ю 1 н/о слаб. ливневой дождь 9/8 600 м
[Cb cap Ci fib]
+16.0 +13.7 86 +17 +17 1004.3 974.6
21 16.06 ЮЗ 2 10 км {ливн. осадки} 10/10 600 м
[Cb cap]
+13.9 +9.2 73 +13 +13 1005.2 975.2
00 17.06 З 2 10 км слаб. ливневой дождь 10/10 600 м
[Cb cap]
+12.0 +10.5 91 +11 +11 1007.9 977.6 +12.0 2
03 17.06 ЮЗ 4 10 км {ливн. осадки} 10/9 600 м
[Cb cap Ac As]
+13.1 +7.8 70 +11 +12 1008.8 978.6 +11.5
06 17.06 З 5-10
{12}
10 км слаб. ливневой дождь 10/10 600 м
[Cb cap]
+12.0 +8.4 79 +10 +10 1010.8 980.4
09 17.06 З 3
{12}
10 км 8/8 600 м
[Cb cap]
+13.8 +7.3 65 +13 +15 1011.8 981.6
12 17.06 З 3
{10}
10 км 9/8 600 м
[Cb cap Ac lent]
+14.7 +6.5 58 +14 +14 1012.3 982.2 +17.4 0.0
15 17.06 ЮЗ 1
{10}
10 км 3/1 600 м
[Sc diur, vesp Ac cuf]
+13.0 +6.8 66 +13 +13 1013.9 983.5
18 17.06 штиль 0 н/о ясно +8.3 +7.2 93 +7 +7 1014.5 983.6
21 17.06 В 1 10 км ясно +7.4 +7.0 97 +6 +6 1014.1 983.1
00 18.06 В 2 10 км 6/0
[Ci fib]
+9.9 +7.2 83 +8 +11 1014.1 983.4 +6.9
03 18.06 ЮВ 3 10 км 8/0
[Ci fib]
+18.8 +6.4 44 +19 +27 1011.9 982.2
06 18.06 ЮВ 4 10 км 8/3 600 м
[Cu med, cong Ci fib]
+21.6 +4.8 33 +22 +28 комфорт 1009.3 979.9

 

Местоположение метеостанции Назарово (Красноярский край, Россия): широта 56.03 долгота 90.32 высота над уровнем моря 256 м.

В архиве по умолчанию представлена погода в Назарово за последнюю неделю. Архивные данные за месяц целиком и за предыдущие месяцы, начиная с января 2011 года, Вы можете получить, выбрав интересующий диапазон дат из раскрывающегося списка и нажав кнопку "Ввод!".


*Определитесь, кто Вы:
робот инопланетянин человек

Внимание! Время в таблицах - всемирное. Для получения местного времени необходимо прибавить поправку, которая равна 7 ч.

Смотрите также архив погоды в соседних городах и на ближайших метеорологических станциях:

Погода в Ачинске (Красноярский край, Россия) (30 км)
Погода в Боготоле (Красноярский край, Россия) (51 км)
Погода в Большом Улуе (Красноярский край, Россия) (70 км)
Погода в Тюхтете (Красноярский край, Россия) (83 км)
Погода в Кемчуге (Красноярский край, Россия) (84 км)
Погода в Ужуре (Красноярский край, Россия) (87 км)
Погода в Шарыпово (Красноярский край, Россия) (89 км)
Погода в Светлолобово (Красноярский край, Россия) (108 км)
Погода в Балахте (Красноярский край, Россия) (111 км)
Погода в Тяжине (Кемеровская область, Россия) (112 км)

Пояснения к столбцам:

Ветер - указаны скорость ветра в м/с - средняя за 10 мин, порывы в срок и между сроками (в фигурных скобках) и направление, откуда дует ветер: С - северный, СВ - северо-восточный, В - восточный, ЮВ - юго-восточный, Ю - южный, ЮЗ - юго-западный, З - западный, СЗ - северо-западный.
Видимость - горизонтальная дальность видимости в метрах или километрах. При видимости от 1 до 10 км при отсутствии осадков обычно наблюдается дымка, при ухудшении видимости до 1 км и менее - туман. В сухую погоду видимость может ухудшаться дымом, пылью или мглою.
Явления - указаны атмосферные явления, наблюдавшиеся в срок или в последний час перед сроком; фигурными скобками обозначены явления, наблюдавшиеся между сроками (за 1-3 часа до срока); квадратными скобками обозначены град или гололедные отложения с указанием их диаметра в мм.
Облачность - указаны через наклонную черту общая и нижняя облачность в баллах и высота нижней границы облаков в метрах; квадратными скобками обозначены формы облаков: Ci - перистые, Cs - перисто-слоистые, Cc - перисто-кучевые, Ac - высококучевые, As - высокослоистые, Sc - слоисто-кучевые, Ns - слоисто-дождевые, Cu - кучевые, Cb - кучево-дождевые. Подробнее классификацию облаков см. в Атласе облаков (PDF).
T - Температура воздуха - температура, измеренная на высоте 2 м над землей.
Td - Температура точки росы - температура, при понижении до которой содержащийся в воздухе водяной пар достигнет насыщения.
f - Относительная влажность воздуха - влажноcть воздуха, измеренная на высоте 2 м над землей.
Te - Эффективная температура - температура, которую ощущает одетый по сезону человек в тени. Характеристика душности погоды. При расчете учитывается влияние влажности воздуха и скорости ветра на теплоощущения человека.
Tes - Эффективная температура на солнце - температура, которую ощущает человек, с поправкой на солнечный нагрев. Характеристика знойности погоды. Зависит от высоты солнца над горизонтом, облачности и скорости ветра. Ночью, в пасмурную погоду, а также при ветре 12 м/с и более поправка равна нулю.
P - Атмосферное давление - приведенное к уровню моря атмосферное давление.
Po - Атмосферное давление - измеренное на уровне метеостанции атмосферное давление.
Tmin - Минимальная температура - минимум температуры воздуха на высоте 2 м над землей.
Tmax - Максимальная температура - максимум температуры воздуха на высоте 2 м над землей.
R - Количество осадков - Количество выпавших осадков за период времени, мм. При наведении курсора мыши на число - период времени, за который выпало указанное количество осадков.
R24 - Количество осадков - Количество выпавших осадков за 24 часа, мм.
S - Снежный покров - Высота снежного покрова, см. При наведении курсора мыши на число - состояние снежного покрова и степень покрытия местности в баллах.